Location: Saratoga Springs
(43.0831°N, 73.7850°W)
Time: 11:26:40
(UTC-04:00)

Vanguard 1 Rocket - Pass Details

Date: 25 April 2024
Orbit: 651 x 4220 km, 34.3° (Epoch: 19 May)

Event Time Altitude Azimuth Distance (km) Brightness Sun altitude
Rises 23:06:36 0° 264° (W) 3,695 10.8 -28.3°
Reaches altitude 10° 23:09:17 10° 250° (WSW) 3,055 10.2 -28.5°
Enters shadow 23:13:18 23° 217° (SW) 2,682 9.5 -28.8°
